User: anonymous   Login
Location: Unspecified
(0.0000°N, 0.0000°E)
Time: 11:18:27
(UTC+00:00)
Language:

OFEQ 10 - Orbit

View from above orbital plane
View from above orbital plane
View from above satellite
View from above satellite

Ground track
Ground track

The orbit data is extracted from the following two-line orbital elements,

1 39650U 14019A   18309.66874820 0.00000300  00000-0  14878-4 0    08
2 39650 140.9207  71.7178 0005146 229.6638 130.3355 15.16866685    03
Epoch (UTC): 05 November 2018 16:02:59
Eccentricity: 0.0005146
inclination: 140.9207°
perigee height: 512 km
apogee height: 519 km
right ascension of ascending node: 71.7178°
argument of perigee: 229.6638°
revolutions per day: 15.16866685
mean anomaly at epoch: 130.3355°
orbit number at epoch: 0

The dashed part of the orbit path shows where the satellite is in the earth's shadow,  

DLR